Location: Asheville, NC
(35.6000°N, 82.5500°W)
Time: 10:39:37
(UTC-04:00)

DOVE 4 - Pass Details

Date: 14 March 2018
Orbit: 589 x 803 km, 97.7° (Epoch: 19 June)

Event Time Altitude Azimuth Distance (km) Brightness Sun altitude
Rises 05:56:15 0° 14° (NNE) 3,291 ? -22.3°
Reaches altitude 10° 05:58:38 10° 16° (NNE) 2,340 ? -21.8°
Maximum altitude 06:03:49 73° 101° (ESE) 791 ? -20.7°
Drops below altitude 10° 06:08:42 10° 186° (S) 2,211 ? -19.8°
Sets 06:10:54 0° 188° (S) 3,095 ? -19.3°
